| time (UTC) | temp C | wind direction | speed KPH | gust KPH | rain 1hr cm | rain 24hr cm | rain mn cm | humidity % | barometer mb |
| 20260902060504 | 17 | 230 | 12.9 | 12.9 | 0.00 | 0.00 | 0.00 | 77 | 1017.9 |
| 20260901204004 | 17 | 220 | 19.3 | 19.3 | 0.00 | 0.00 | 0.00 | 77 | 1017.9 |
| 20260901203004 | 17 | 220 | 19.3 | 19.3 | 0.00 | 0.00 | 0.00 | 77 | 1017.9 |
| 20260901202004 | 17 | 220 | 19.3 | 19.3 | 0.00 | 0.00 | 0.00 | 77 | 1017.9 |
| 20260901200504 | 17 | 220 | 19.3 | 19.3 | 0.00 | 0.00 | 0.00 | 77 | 1017.9 |
| 20260901194504 | 18 | 230 | 14.5 | 14.5 | 0.00 | 0.00 | 0.00 | 63 | 1017.9 |
| 20260901193504 | 18 | 230 | 14.5 | 14.5 | 0.00 | 0.00 | 0.00 | 63 | 1017.9 |
| 20260901193004 | 18 | 230 | 14.5 | 14.5 | 0.00 | 0.00 | 0.00 | 63 | 1017.9 |
| 20260901191504 | 18 | 230 | 14.5 | 14.5 | 0.00 | 0.00 | 0.00 | 63 | 1017.9 |
| 20260901190004 | 18 | 230 | 14.5 | 16.1 | 0.00 | 0.00 | 0.00 | 63 | 1017.9 |
| 20260901185504 | 18 | 220 | 16.1 | 16.1 | 0.00 | 0.00 | 0.00 | 59 | 1017.9 |
| 20260901184003 | 18 | 220 | 16.1 | 16.1 | 0.00 | 0.00 | 0.00 | 59 | 1017.9 |
| 20260901183004 | 18 | 220 | 16.1 | 16.1 | 0.00 | 0.00 | 0.00 | 59 | 1017.9 |
| 20260901182504 | 18 | 220 | 16.1 | 16.1 | 0.00 | 0.00 | 0.00 | 59 | 1017.9 |
| 20260901182004 | 18 | 220 | 16.1 | 16.1 | 0.00 | 0.00 | 0.00 | 59 | 1017.9 |
| 20260901181504 | 18 | 220 | 16.1 | 16.1 | 0.00 | 0.00 | 0.00 | 59 | 1017.9 |
| 20260901180503 | 18 | 220 | 16.1 | 25.7 | 0.00 | 0.00 | 0.00 | 59 | 1017.9 |
| 20260901180004 | 18 | 220 | 16.1 | 25.7 | 0.00 | 0.00 | 0.00 | 59 | 1017.9 |
| 20260901175004 | 21 | 240 | 25.7 | 25.7 | 0.00 | 0.00 | 0.00 | 52 | 1017.9 |
| 20260901174006 | 21 | 240 | 25.7 | 25.7 | 0.00 | 0.00 | 0.00 | 52 | 1017.9 |
| 20260901173504 | 21 | 240 | 25.7 | 25.7 | 0.00 | 0.00 | 0.00 | 52 | 1017.9 |
| 20260901170504 | 21 | 240 | 25.7 | 25.7 | 0.00 | 0.00 | 0.00 | 52 | 1017.9 |
| 20260901170004 | 21 | 240 | 25.7 | 25.7 | 0.00 | 0.00 | 0.00 | 52 | 1017.9 |
| 20260901164504 | 21 | 250 | 24.1 | 24.1 | 0.00 | 0.00 | 0.00 | 49 | 1017.9 |
| 20260901163504 | 21 | 250 | 24.1 | 24.1 | 0.00 | 0.00 | 0.00 | 49 | 1017.9 |
| 20260901161004 | 21 | 250 | 24.1 | 24.1 | 0.00 | 0.00 | 0.00 | 49 | 1017.9 |
| 20260901155504 | 21 | 250 | 24.1 | 24.1 | 0.00 | 0.00 | 0.00 | 49 | 1017.9 |
| 20260901155004 | 21 | 250 | 24.1 | 24.1 | 0.00 | 0.00 | 0.00 | 49 | 1017.9 |
| 20260901152004 | 21 | 250 | 24.1 | 24.1 | 0.00 | 0.00 | 0.00 | 49 | 1017.9 |
| 20260901151504 | 21 | 250 | 24.1 | 24.1 | 0.00 | 0.00 | 0.00 | 49 | 1017.9 |
| 20260901151004 | 21 | 250 | 24.1 | 24.1 | 0.00 | 0.00 | 0.00 | 49 | 1017.9 |
| 20260901150004 | 21 | 250 | 24.1 | 29.0 | 0.00 | 0.00 | 0.00 | 49 | 1017.9 |
| 20260901144004 | 20 | 250 | 29.0 | 29.0 | 0.00 | 0.00 | 0.00 | 52 | 1017.9 |
| 20260901143004 | 20 | 250 | 29.0 | 29.0 | 0.00 | 0.00 | 0.00 | 52 | 1017.9 |
| 20260901142504 | 20 | 250 | 29.0 | 29.0 | 0.00 | 0.00 | 0.00 | 52 | 1017.9 |
| 20260901142004 | 20 | 250 | 29.0 | 29.0 | 0.00 | 0.00 | 0.00 | 52 | 1017.9 |
| 20260901141505 | 20 | 250 | 29.0 | 29.0 | 0.00 | 0.00 | 0.00 | 52 | 1017.9 |
| 20260901141004 | 20 | 250 | 29.0 | 29.0 | 0.00 | 0.00 | 0.00 | 52 | 1017.9 |
| 20260901134504 | 21 | 240 | 24.1 | 24.1 | 0.00 | 0.00 | 0.00 | 46 | 1017.9 |
| 20260901124004 | 21 | 240 | 24.1 | 24.1 | 0.00 | 0.00 | 0.00 | 49 | 1019.0 |
| 20260901123004 | 21 | 240 | 24.1 | 24.1 | 0.00 | 0.00 | 0.00 | 49 | 1019.0 |
| 20260901122004 | 21 | 240 | 24.1 | 24.1 | 0.00 | 0.00 | 0.00 | 49 | 1019.0 |
| 20260901121504 | 21 | 240 | 24.1 | 24.1 | 0.00 | 0.00 | 0.00 | 49 | 1019.0 |
| 20260901121004 | 21 | 240 | 24.1 | 24.1 | 0.00 | 0.00 | 0.00 | 49 | 1019.0 |
| 20260901120004 | 21 | 240 | 24.1 | 24.1 | 0.00 | 0.00 | 0.00 | 49 | 1019.0 |
| 20260901115504 | 18 | 240 | 22.5 | 22.5 | 0.00 | 0.00 | 0.00 | 52 | 1019.0 |
| 20260901114003 | 18 | 240 | 22.5 | 22.5 | 0.00 | 0.00 | 0.00 | 52 | 1019.0 |
| 20260901113504 | 18 | 240 | 22.5 | 22.5 | 0.00 | 0.00 | 0.00 | 52 | 1019.0 |
| 20260901113004 | 18 | 240 | 22.5 | 22.5 | 0.00 | 0.00 | 0.00 | 52 | 1019.0 |
| 20260901112503 | 18 | 240 | 22.5 | 22.5 | 0.00 | 0.00 | 0.00 | 52 | 1019.0 |
| 20260901112004 | 18 | 240 | 22.5 | 22.5 | 0.00 | 0.00 | 0.00 | 52 | 1019.0 |
| 20260901111504 | 18 | 240 | 22.5 | 22.5 | 0.00 | 0.00 | 0.00 | 52 | 1019.0 |
| 20260901110004 | 18 | 240 | 22.5 | 22.5 | 0.00 | 0.00 | 0.00 | 52 | 1019.0 |
| 20260901105004 | 17 | 240 | 22.5 | 22.5 | 0.00 | 0.00 | 0.00 | 63 | 1019.0 |
| 20260901102004 | 17 | 240 | 22.5 | 22.5 | 0.00 | 0.00 | 0.00 | 63 | 1019.0 |
| 20260901101504 | 17 | 240 | 22.5 | 22.5 | 0.00 | 0.00 | 0.00 | 63 | 1019.0 |
| 20260901100504 | 17 | 240 | 22.5 | 22.5 | 0.00 | 0.00 | 0.00 | 63 | 1019.0 |
| 20260901100003 | 17 | 240 | 22.5 | 22.5 | 0.00 | 0.00 | 0.00 | 63 | 1019.0 |
| 20260901095005 | 17 | 230 | 16.1 | 16.1 | 0.00 | 0.00 | 0.00 | 67 | 1019.0 |
| 20260901094003 | 17 | 230 | 16.1 | 16.1 | 0.00 | 0.00 | 0.00 | 67 | 1019.0 |
| 20260901091004 | 17 | 230 | 16.1 | 16.1 | 0.00 | 0.00 | 0.00 | 67 | 1019.0 |
| 20260901090004 | 17 | 230 | 16.1 | 16.1 | 0.00 | 0.00 | 0.00 | 67 | 1019.0 |
| 20260901085504 | 15 | 240 | 16.1 | 16.1 | 0.00 | 0.00 | 0.00 | 76 | 1019.0 |
| 20260901084004 | 15 | 240 | 16.1 | 16.1 | 0.00 | 0.00 | 0.00 | 76 | 1019.0 |
| 20260901081004 | 15 | 240 | 16.1 | 16.1 | 0.00 | 0.00 | 0.00 | 76 | 1019.0 |
| 20260901080504 | 15 | 240 | 16.1 | 16.1 | 0.00 | 0.00 | 0.00 | 76 | 1019.0 |
| 20260901080003 | 15 | 240 | 16.1 | 16.1 | 0.00 | 0.00 | 0.00 | 76 | 1019.0 |
| 20260901074004 | 12 | 230 | 14.5 | 14.5 | 0.00 | 0.00 | 0.00 | 87 | 1019.0 |
| 20260901073004 | 12 | 230 | 14.5 | 14.5 | 0.00 | 0.00 | 0.00 | 87 | 1019.0 |
| 20260901072004 | 12 | 230 | 14.5 | 14.5 | 0.00 | 0.00 | 0.00 | 87 | 1019.0 |
| 20260901071005 | 12 | 230 | 14.5 | 14.5 | 0.00 | 0.00 | 0.00 | 87 | 1019.0 |
| 20260901070504 | 12 | 230 | 14.5 | 14.5 | 0.00 | 0.00 | 0.00 | 87 | 1019.0 |
| 20260901070004 | 12 | 230 | 14.5 | 14.5 | 0.00 | 0.00 | 0.00 | 87 | 1019.0 |
| 20260901065504 | 13 | 260 | 14.5 | 14.5 | 0.00 | 0.00 | 0.00 | 76 | 1016.9 |
| 20260901065004 | 13 | 260 | 14.5 | 14.5 | 0.00 | 0.00 | 0.00 | 76 | 1016.9 |
| 20260901063504 | 13 | 260 | 14.5 | 14.5 | 0.00 | 0.00 | 0.00 | 76 | 1016.9 |
| 20260901062504 | 13 | 260 | 14.5 | 14.5 | 0.00 | 0.00 | 0.00 | 76 | 1016.9 |
| 20260901062004 | 13 | 260 | 14.5 | 14.5 | 0.00 | 0.00 | 0.00 | 76 | 1016.9 |
| 20260901061504 | 13 | 260 | 14.5 | 14.5 | 0.00 | 0.00 | 0.00 | 76 | 1016.9 |
| 20260901061004 | 13 | 260 | 14.5 | 14.5 | 0.00 | 0.00 | 0.00 | 76 | 1016.9 |